Volver al catálogo

BREEZE-M R/B

ActivoHEO
NORAD 33375·ROCKET BODY·🇷🇺 Russia

Lanzado Sep 19, 2008 desde Baikonur Cosmodrome

Loading…

Próximos Pases (próximas 24 horas)

TLE

ActualizadoSource: Space-Track

Época: Sep 14, 2026, 08:48 UTC

1 33375U 08044C   26257.36666917 -.00000221  00000-0  00000-0 0  9999
2 33375  12.4176 297.9585 5992605 348.5960   2.4311  2.03679530133834

Sigue BREEZE-M R/B en tiempo real con AllMySat

Download on the App Store